Theta_e
309 308 308 308 307 305 307 309 303 315 313 299 300 295 300 301 303 306 306 306 304 303 304 304 304 303 307 313 312 306 308 303 298 303 310 312 308 303 303 295 293 297 296 298
309 308 308 307 307 306 301 303 310 314 309 293 295 299 300 302 301 303 305 304 305 306 302 302 308 309 310 312 311 306 308 299 295 298 303 307 303 305 302 302 303 298 296 300
308 308 309 308 307 306 303 304 304 306 306 302 299 298 300 301 306 304 308 305 305 303 301 304 305 306 309 310 312 324 314 304 300 294 300 304 303 307 306 302 295 296 298 302
308 308 308 308 307 306 304 309 306 307 300 300 300 300 301 301 301 306 306 304 304 301 297 302 302 306 308 308 315 309 308 300 303 305 307 306 305 308 307 303 301 296 300 307
308 308 308 308 307 305 307 305 302 305 303 306 304 303 300 302 303 305 302 302 305 304 299 302 303 308 308 308 308 301 306 300 302 302 308 307 305 308 308 308 306 306 308 307
307 308 308 308 306 305 306 310 308 305 303 302 301 302 304 303 304 307 307 306 305 305 310 312 311 308 310 309 308 310 307 305 302 298 307 306 301 306 307 308 308 306 299 308
306 306 307 308 307 305 301 306 307 302 298 301 302 304 304 304 306 306 308 310 310 313 315 315 312 308 307 309 307 311 309 309 307 300 304 294 305 311 311 311 312 312 314 316
306 306 306 307 307 306 301 305 306 303 297 302 302 303 305 309 310 309 311 313 313 314 311 305 301 300 301 304 307 305 309 305 300 297 297 303 307 311 308 305 308 320 317 315
305 306 306 306 307 306 303 304 310 303 299 300 304 300 304 303 304 306 310 316 315 312 305 302 296 294 299 298 300 302 303 309 302 298 295 294 305 313 317 314 306 322 319 319
305 306 306 306 306 305 303 303 309 303 298 305 303 299 299 305 304 303 308 309 308 310 302 297 295 295 302 296 297 297 296 298 299 299 296 300 309 317 317 300 305 318 323 322
304 305 306 306 306 306 303 302 308 304 298 299 304 304 301 301 303 299 304 306 306 304 298 297 298 297 300 300 302 303 298 297 295 298 296 294 318 318 313 312 315 329 328 326
305 305 305 305 305 306 305 302 307 311 305 300 306 306 307 304 306 303 304 305 308 310 305 303 303 299 301 301 297 308 300 304 299 300 300 322 329 326 331 320 329 329 327 327
305 305 304 305 305 305 304 300 304 306 304 304 304 304 309 306 305 306 301 308 310 310 315 309 308 304 306 299 303 306 309 316 306 307 315 322 328 329 330 331 330 330 331 329
305 305 304 304 304 305 305 299 304 305 304 298 304 313 312 316 310 308 306 305 312 312 311 306 304 302 309 304 306 305 309 314 312 311 318 322 326 326 328 330 331 330 333 331
305 304 304 304 304 305 304 302 305 308 305 297 300 307 311 312 310 309 309 304 307 307 304 302 299 304 304 305 306 305 313 311 309 308 316 317 317 321 326 329 329 329 329 331
304 304 304 304 304 305 302 304 310 308 310 302 298 311 312 311 311 309 307 305 306 307 303 303 306 308 307 302 301 312 318 317 319 313 322 323 323 319 324 328 331 332 331 330
304 303 304 304 305 302 298 300 305 306 306 303 300 302 311 312 311 307 305 306 305 305 302 301 302 303 307 302 298 311 315 317 317 319 320 320 324 321 327 325 324 327 330 333
303 303 304 304 304 303 300 305 308 308 304 305 299 302 305 313 304 303 307 303 305 305 303 304 302 303 306 299 305 309 314 315 318 316 317 316 319 324 327 322 323 321 320 325
303 303 304 302 303 304 307 312 311 310 306 299 301 298 298 310 307 309 309 309 301 308 301 302 303 300 298 304 305 308 313 312 311 313 315 315 317 320 323 321 320 318 321 324
303 300 300 300 309 313 312 307 304 304 304 304 299 305 302 305 305 305 305 306 302 299 302 305 301 298 305 310 311 312 315 313 312 309 308 311 313 316 317 319 319 320 319 320
298 299 302 311 312 308 304 300 298 300 298 301 301 300 302 308 301 302 307 302 303 297 300 300 299 298 307 313 313 315 314 313 313 313 313 312 311 312 313 317 317 317 322 318
299 297 301 307 304 301 297 296 299 298 297 304 302 302 306 309 312 304 305 300 303 296 307 302 297 304 311 311 311 312 312 313 313 315 314 314 315 314 314 317 318 320 324 325
302 299 300 299 299 289 291 290 294 296 304 308 306 304 307 308 309 306 302 295 297 306 301 298 303 309 312 311 311 310 312 313 313 313 315 314 315 316 315 315 318 318 322 325
298 297 286 293 292 294 295 297 301 305 307 307 307 305 305 307 304 304 299 302 304 298 295 296 305 308 309 311 311 310 310 311 310 311 313 313 313 314 316 317 318 319 320 322
297 298 288 292 298 301 304 303 301 307 310 308 305 306 305 302 301 303 301 298 295 297 297 303 307 310 310 311 311 309 309 308 309 310 311 311 313 313 314 317 318 317 319 321
300 299 296 300 299 299 302 304 304 309 309 309 308 303 300 299 300 298 296 296 294 297 302 306 309 309 309 309 309 309 309 308 309 311 311 312 311 312 313 316 318 317 319 319
298 297 301 301 301 301 305 309 308 311 305 303 303 298 296 302 297 296 301 298 300 303 306 308 308 306 306 308 309 308 308 309 310 312 313 313 314 316 315 313 310 312 315 319
Wind_Speed
21 23 24 24 25 32 8 4 3 5 5 3 3 4 4 5 15 20 3 6 5 5 13 6 7 8 9 8 18 10 10 6 3 9 9 11 9 8 8 6 8 5 5 3
20 22 24 24 22 19 7 5 4 2 3 3 6 6 12 15 19 19 4 5 7 4 6 6 7 6 7 17 6 3 3 3 1 10 10 8 1 6 1 2 2 4 3 6
20 22 23 24 24 19 4 4 3 2 3 5 5 6 9 13 16 18 3 7 7 6 3 7 6 10 6 7 6 6 5 4 5 7 7 3 4 7 4 5 2 5 5 5
19 21 23 26 28 27 2 4 3 4 1 4 10 8 10 15 10 4 3 8 8 6 3 7 7 4 6 5 4 4 4 2 5 7 9 9 11 8 5 2 6 3 8 8
18 20 23 26 30 33 3 4 5 7 9 9 7 6 10 11 12 4 5 4 11 7 3 5 5 8 6 5 6 3 3 3 5 5 7 12 15 16 9 9 11 11 14 2
20 20 21 24 26 23 5 5 6 4 8 7 5 6 7 6 8 7 7 11 5 3 11 12 9 4 4 3 4 4 3 2 2 6 7 9 8 5 3 5 4 9 6 8
18 20 20 21 21 18 4 4 6 4 7 9 11 14 13 10 6 4 7 9 7 5 9 9 6 6 6 7 5 4 4 3 2 2 5 4 8 2 3 2 5 11 19 16
17 19 20 20 20 20 4 4 4 4 7 10 12 20 11 5 8 6 6 11 6 6 6 4 2 4 4 4 9 1 2 3 3 2 3 8 11 2 3 3 7 16 22 15
15 17 19 19 19 20 6 6 3 4 4 5 14 16 13 7 9 3 2 6 6 7 2 3 1 3 2 3 3 4 2 4 5 3 2 4 6 2 4 1 6 23 8 14
14 16 17 19 20 18 9 6 8 3 4 3 13 9 8 7 8 4 5 6 3 5 1 2 2 4 4 5 5 6 4 3 6 4 5 8 6 3 4 2 7 15 10 13
13 14 16 18 19 20 11 8 10 2 4 9 7 10 9 10 8 4 7 5 6 2 1 1 3 3 6 6 8 4 9 7 6 3 5 11 5 6 2 7 1 13 15 11
12 13 14 16 18 19 17 4 9 8 4 7 14 14 12 8 4 2 5 4 8 4 4 2 4 3 4 3 5 6 4 8 7 10 8 3 5 6 6 8 6 7 14 10
11 13 14 14 15 16 12 6 7 6 4 9 6 8 10 6 5 4 0 3 5 4 3 3 4 3 4 3 3 5 8 9 3 6 6 4 11 10 10 7 6 4 7 14
11 12 13 14 14 14 12 5 7 6 4 4 1 7 2 2 3 4 4 3 3 3 3 2 2 4 5 3 1 2 2 7 8 3 12 5 14 13 16 5 4 5 8 12
11 12 13 14 15 15 10 7 7 8 4 4 8 14 7 7 4 4 4 2 1 3 4 1 3 3 4 4 1 2 2 1 3 3 3 2 3 2 4 5 3 6 6 9
10 12 13 13 14 15 5 3 4 6 5 3 5 1 2 6 7 5 4 3 1 3 2 3 4 5 2 3 2 4 7 2 4 2 2 3 9 2 5 2 2 2 8 8
11 12 12 13 12 6 4 4 4 11 6 4 5 3 4 7 6 3 3 4 4 3 3 4 4 6 3 2 4 4 8 2 6 6 7 3 6 4 8 6 11 4 5 9
11 12 14 15 17 12 6 5 13 3 4 4 4 0 4 6 4 3 4 4 4 3 3 3 3 4 2 3 4 3 6 6 0 0 5 5 7 4 4 5 3 7 7 10
11 14 17 7 4 4 2 5 5 3 3 4 4 3 2 9 3 1 2 3 5 4 5 6 4 4 5 6 8 3 6 5 6 6 7 7 8 8 8 7 7 8 10 5
11 7 5 4 2 9 3 2 3 5 4 5 5 1 3 3 5 3 3 4 2 1 4 3 5 5 8 6 7 7 8 6 5 3 3 5 5 4 3 1 3 5 4 12
4 4 2 1 3 2 3 3 4 4 4 6 5 8 4 4 8 3 1 4 3 1 5 4 2 3 3 10 12 9 8 8 8 8 7 6 5 5 4 4 7 4 7 6
5 5 7 4 4 2 4 3 4 6 5 4 3 5 5 2 4 4 2 2 3 4 1 3 2 3 6 9 11 11 10 9 9 8 7 9 11 9 5 5 5 3 5 5
4 4 4 3 3 1 6 7 4 4 2 2 3 3 3 4 3 3 4 3 7 4 2 4 1 5 6 5 8 9 9 10 8 8 8 7 9 11 10 8 7 2 4 9
4 4 2 5 6 7 7 6 2 3 1 3 4 3 3 3 3 2 1 4 4 3 3 4 3 3 4 5 5 5 6 6 10 13 11 11 7 8 10 9 8 6 2 5
5 5 5 8 8 3 8 10 5 4 3 2 2 3 2 2 3 3 1 3 2 4 3 2 1 3 5 6 6 6 6 7 8 7 9 10 10 8 8 8 12 11 11 7
5 6 6 4 4 6 8 7 4 3 1 1 1 1 2 3 2 3 4 4 4 2 1 2 4 6 6 6 6 7 6 8 10 9 7 7 8 7 8 8 6 6 3 5
4 5 4 4 1 4 6 4 2 3 5 2 3 2 3 2 3 3 5 3 2 2 4 3 5 5 7 7 8 8 8 9 10 9 8 7 7 5 6 5 2 6 7 4
Wind_Direction
350 349 350 351 352 342 1 303 277 186 123 115 223 235 254 268 298 306 317 309 294 296 332 6 341 190 197 236 208 220 202 163 230 227 220 202 208 213 181 128 275 220 173 261
351 349 349 352 354 7 321 299 269 208 146 204 231 252 259 262 273 276 248 284 290 314 334 341 29 321 34 17 48 56 307 170 353 331 341 332 301 228 258 182 114 247 129 242
351 350 350 349 347 348 305 276 266 148 198 255 283 275 283 263 261 264 292 313 296 305 299 319 321 349 353 59 82 41 71 62 141 196 223 330 306 333 341 79 11 260 237 148
352 352 352 350 346 339 231 238 307 31 357 234 225 243 280 295 265 224 345 336 299 287 338 322 302 306 331 354 41 59 71 64 42 330 335 329 317 264 281 338 242 187 268 124
354 355 355 354 352 339 222 324 352 346 294 310 328 249 248 284 313 139 217 256 296 326 254 287 340 3 25 66 351 70 13 316 14 314 318 305 304 307 212 218 223 249 96 45
354 358 359 360 5 350 347 345 336 290 289 304 302 292 301 248 298 328 280 220 240 311 5 336 325 358 12 37 350 31 54 54 88 276 308 315 318 284 62 239 320 349 272 145
353 358 358 0 8 17 303 289 311 290 298 320 324 295 266 273 239 287 305 354 70 17 331 315 283 290 360 332 305 47 73 53 10 263 10 281 245 121 192 2 356 37 96 107
352 357 357 358 0 2 319 288 314 321 309 321 347 340 336 40 69 29 21 73 77 12 356 336 336 355 1 286 299 232 89 87 6 84 279 280 309 329 290 109 19 43 117 122
348 352 355 356 359 1 334 281 341 320 302 356 337 320 4 8 359 143 263 93 73 54 35 301 260 187 242 243 206 227 297 138 129 13 330 276 281 223 238 17 77 69 83 154
343 347 352 354 355 358 344 282 289 291 288 271 347 356 349 349 339 309 6 3 81 89 356 254 271 241 262 253 216 194 207 240 184 200 223 264 260 217 10 122 197 132 142 240
337 339 347 350 353 356 353 280 284 311 305 290 340 350 346 344 20 15 315 336 10 44 180 277 259 247 243 240 242 188 177 172 209 211 216 264 301 355 149 212 159 133 131 165
331 336 338 343 350 354 349 288 336 349 267 274 307 286 274 277 323 340 330 307 16 336 352 22 312 286 323 329 289 308 206 185 194 170 212 193 53 107 55 154 99 112 127 144
320 328 334 337 342 348 354 303 309 294 273 281 233 255 238 213 216 253 312 51 15 356 318 296 287 295 18 328 356 302 354 2 131 73 344 82 93 59 42 54 49 50 138 141
313 319 326 330 334 335 338 306 300 285 288 272 358 119 152 197 268 228 213 252 6 284 271 287 301 328 346 321 316 310 345 349 333 39 30 37 55 40 8 46 47 28 83 130
307 312 318 324 328 326 308 261 259 265 275 306 304 313 229 164 193 261 259 187 129 304 310 248 253 296 330 286 234 272 81 77 67 47 282 338 48 174 111 315 41 118 96 88
302 308 311 316 322 330 295 232 161 8 1 282 279 341 175 152 154 201 233 175 178 243 275 295 278 254 205 302 305 256 43 1 141 174 325 135 189 122 310 234 205 44 119 140
297 302 302 303 305 308 269 312 316 321 312 255 275 256 187 164 152 208 170 209 226 206 232 227 265 287 294 210 238 146 122 37 23 18 22 60 359 176 157 12 4 15 295 140
295 299 298 297 293 279 269 225 238 237 259 266 277 344 273 158 189 199 195 189 196 241 230 267 249 288 253 243 268 285 159 148 256 270 43 354 6 20 36 54 52 27 12 315
297 301 293 290 215 235 84 161 136 209 288 308 277 286 296 343 271 25 321 238 186 226 191 226 193 235 226 190 238 276 79 118 100 36 39 359 20 13 29 27 21 23 318 246
304 285 223 217 162 133 153 146 208 197 210 217 250 202 156 169 304 44 23 309 206 218 245 220 214 240 247 250 210 195 124 100 77 50 25 355 7 28 104 305 166 180 89 64
223 231 245 71 126 204 225 234 225 201 223 208 228 227 144 171 188 125 68 265 252 251 259 178 240 161 3 47 53 59 65 58 44 25 356 312 294 283 287 256 282 312 156 158
320 284 276 260 208 211 243 228 221 218 235 183 210 238 203 143 130 128 57 307 275 243 86 41 265 90 17 53 56 41 43 26 9 4 350 354 347 327 300 234 289 72 126 136
262 206 235 183 208 129 219 208 207 227 166 77 9 338 54 12 45 85 131 112 254 83 211 185 90 85 65 53 34 27 14 0 340 333 334 330 336 339 344 351 337 192 169 168
249 208 281 210 214 220 213 246 40 301 130 105 44 349 62 26 4 285 253 261 292 273 207 82 104 52 58 40 46 23 358 345 333 324 318 309 329 327 331 337 330 318 252 210
259 249 199 217 246 325 296 110 307 297 112 95 107 244 149 239 223 225 268 234 205 38 37 74 107 44 23 26 13 338 328 320 307 298 302 311 319 324 327 340 346 11 8 121
237 242 274 283 244 216 262 127 118 351 13 179 229 277 297 227 266 254 242 331 59 68 322 29 24 19 355 338 321 306 308 307 294 288 280 276 281 293 302 316 5 336 0 206
258 245 236 267 315 283 43 40 27 357 323 91 258 208 220 247 229 247 34 38 164 103 87 57 46 349 325 313 302 302 295 282 280 279 259 251 264 302 318 343 50 70 23 101